Location: Napoli
(40.8639°N, 14.2562°E)
Time: 15:39:46
(UTC+02:00)

ISS - Pass Details

Date: 14 October 2017
Orbit: 400 x 408 km, 51.6° (Epoch: 24 October)

Event Time Altitude Azimuth Distance (km) Brightness Sun altitude
Rises 19:14:58 0° 307° (NW) 2,325 0.9 -10.4°
Reaches altitude 10° 19:17:04 10° 308° (NW) 1,464 -0.2 -10.8°
Maximum altitude 19:20:21 78° 36° (NE) 419 -3.9 -11.4°
Enters shadow 19:22:52 16° 121° (ESE) 1,159 -2.0 -11.9°
